Weather History for Detroit, MI

Change the Weather History Date:

Saturday, November 15, 2008

  Actual Average Record
Temperature  
Mean Temperature 42 °F -  
Max Temperature 48 °F 47 °F 69 °F (1971)
Min Temperature 36 °F 33 °F 19 °F (1996)
Degree Days  
Heating Degree Days 23    
Moisture  
Dew Point 38 °F    
Average Humidity 87    
Maximum Humidity 93    
Minimum Humidity 62    
Precipitation  
Precipitation 1.10 in - - ()
Sea Level Pressure  
Sea Level Pressure 29.63 in    
Wind  
Wind Speed 10 mph (North)    
Max Wind Speed 23 mph    
Max Gust Speed 36 mph    
Visibility 6 miles    
Events Rain    
Averages and records for this station are not official NWS values.
T = Trace of Precipitation, MM = Missing Value Source: NWS Daily Summary

Daily Weather History Graph

Daily Weather History Graph

Search for Another Location

Airport:

Trip Planner

Search our weather history database for the weather conditions in past years. The results will help you decide how hot, cold, wet, or windy it might be!

Date:

Astronomy

Nov. 15, 2008 Rise Set
Actual Time 7:23 AM EST 5:09 PM EST
Civil Twilight 6:53 AM EST 5:39 PM EST
Nautical Twilight 6:19 AM EST 6:13 PM EST
Astronomical Twilight 5:45 AM EST 6:47 PM EST
Moon 7:13 PM EST (11/15) 10:27 AM EST (11/15)
Length of Visible Light 10h 46m
Length of Day
9h 45m
Waning Gibbous, 91% of the Moon is Illuminated
Nov 15
Waning Gibbous
Nov 19
Last Quarter
Nov 27
New
Dec 5
First Quarter
Dec 12
Full

Hourly Weather History & Observations

Time (EST) Temp. Windchill Dew Point Humidity Pressure Visibility Wind Dir Wind Speed Gust Speed Precip Events Conditions
12:53 AM 48.9 °F - 46.0 °F 90% 29.69 in 5.0 mi NNE 4.6 mph - 0.04 in Rain Light Rain
1:03 AM 48.2 °F - 46.4 °F 93% 29.69 in 5.0 mi North 3.5 mph - 0.01 in Rain Light Rain
1:30 AM 48.2 °F - 46.4 °F 93% 29.68 in 5.0 mi NNE 5.8 mph - 0.04 in Rain Light Rain
1:51 AM 48.2 °F - 46.4 °F 93% 29.68 in 4.0 mi NNE 4.6 mph - 0.07 in Rain Light Rain
1:53 AM 48.9 °F - 46.0 °F 90% 29.69 in 4.0 mi NNE 4.6 mph - 0.08 in Rain Light Rain
2:16 AM 48.2 °F - 46.4 °F 93% 29.68 in 4.0 mi North 4.6 mph - 0.03 in Rain Light Rain
2:30 AM 48.2 °F - 46.4 °F 93% 29.68 in 4.0 mi NNE 5.8 mph - 0.05 in Rain Light Rain
2:53 AM 48.9 °F - 46.0 °F 90% 29.68 in 5.0 mi NE 8.1 mph - 0.07 in Rain Light Rain
3:09 AM 48.2 °F - 46.4 °F 93% 29.67 in 6.0 mi NNE 6.9 mph - 0.02 in Rain Light Rain
3:13 AM 48.2 °F - 46.4 °F 93% 29.67 in 6.0 mi NNE 9.2 mph - 0.03 in Rain Light Rain
3:21 AM 46.4 °F 40.4 °F 42.8 °F 87% 29.67 in 6.0 mi NE 13.8 mph 27.6 mph 0.05 in Rain Rain
3:53 AM 45.0 °F 38.5 °F 42.1 °F 90% 29.67 in 10.0 mi NNE 13.8 mph 20.7 mph 0.07 in Rain Light Rain
4:53 AM 44.1 °F 39.0 °F 39.9 °F 85% 29.65 in 9.0 mi NNE 9.2 mph 21.9 mph 0.03 in Rain Light Rain
5:53 AM 43.0 °F 35.7 °F 39.9 °F 89% 29.61 in 7.0 mi North 15.0 mph 23.0 mph 0.05 in Rain Light Rain
6:53 AM 43.0 °F 36.4 °F 39.0 °F 86% 29.60 in 8.0 mi North 12.7 mph 21.9 mph 0.03 in Rain Light Rain
7:18 AM 42.8 °F 35.8 °F 39.2 °F 87% 29.59 in 7.0 mi North 13.8 mph 25.3 mph 0.02 in Rain Light Rain
7:53 AM 43.0 °F 35.4 °F 39.9 °F 89% 29.58 in 8.0 mi North 16.1 mph 20.7 mph 0.06 in Rain Light Rain
8:53 AM 43.0 °F 34.5 °F 39.9 °F 89% 29.59 in 6.0 mi North 19.6 mph 28.8 mph 0.06 in Rain Light Rain
9:03 AM 42.8 °F 34.0 °F 39.2 °F 87% 29.58 in 4.0 mi North 20.7 mph 27.6 mph 0.02 in Rain Rain
9:44 AM 42.8 °F 34.5 °F 39.2 °F 87% 29.58 in 6.0 mi North 18.4 mph 25.3 mph 0.08 in Rain Light Rain
9:53 AM 42.1 °F 32.6 °F 39.0 °F 89% 29.58 in 7.0 mi North 23.0 mph 32.2 mph 0.09 in Rain Light Rain
10:51 AM 41.0 °F 33.1 °F 37.4 °F 87% 29.57 in 5.0 mi North 15.0 mph 26.5 mph 0.07 in Rain Light Rain
10:53 AM 41.0 °F 32.2 °F 39.0 °F 93% 29.58 in 5.0 mi North 18.4 mph 26.5 mph 0.07 in Rain Light Rain
11:17 AM 39.2 °F 29.8 °F 37.4 °F 93% 29.56 in 4.0 mi North 18.4 mph 26.5 mph 0.04 in Rain Rain
11:53 AM 39.9 °F 31.4 °F 37.0 °F 89% 29.56 in 5.0 mi North 16.1 mph 35.7 mph 0.08 in Rain Light Rain
12:19 PM 39.2 °F 30.2 °F 37.4 °F 93% 29.54 in 5.0 mi North 17.3 mph 26.5 mph 0.03 in Rain Light Rain
12:53 PM 39.0 °F 30.3 °F 37.0 °F 93% 29.54 in 3.0 mi North 16.1 mph 26.5 mph 0.08 in Rain Rain
1:05 PM 37.4 °F 27.5 °F 35.6 °F 93% 29.53 in 2.5 mi North 18.4 mph 33.4 mph 0.04 in Rain Rain
1:53 PM 37.9 °F 28.9 °F 36.0 °F 93% 29.54 in 2.5 mi North 16.1 mph 25.3 mph 0.12 in Rain Light Rain
2:00 PM 37.4 °F 29.3 °F 35.6 °F 93% 29.54 in 4.0 mi NNW 12.7 mph 24.2 mph 0.01 in Rain Light Rain
2:11 PM 37.4 °F 29.8 °F 35.6 °F 93% 29.53 in 4.0 mi NNW 11.5 mph 20.7 mph 0.02 in Rain Light Rain
2:45 PM 37.4 °F 30.3 °F 35.6 °F 93% 29.55 in 3.0 mi NNW 10.4 mph 18.4 mph 0.07 in Rain Light Rain
2:53 PM 37.0 °F 29.8 °F 35.1 °F 93% 29.56 in 4.0 mi NNW 10.4 mph 17.3 mph 0.07 in Rain Light Rain
3:53 PM 37.9 °F 28.5 °F 35.1 °F 89% 29.57 in 10.0 mi NW 17.3 mph 24.2 mph 0.05 in Rain Light Rain
4:53 PM 36.0 °F 28.0 °F 34.0 °F 93% 29.61 in 9.0 mi NW 11.5 mph 25.3 mph 0.03 in Rain Light Rain
5:53 PM 37.0 °F 28.9 °F 35.1 °F 93% 29.65 in 10.0 mi WNW 12.7 mph 26.5 mph 0.02 in Rain Light Rain
6:53 PM 37.9 °F 30.9 °F 35.1 °F 89% 29.68 in 10.0 mi WNW 10.4 mph 21.9 mph 0.00 in   Overcast
7:53 PM 39.0 °F 32.3 °F 30.0 °F 70% 29.70 in 10.0 mi NW 10.4 mph 20.7 mph N/A   Overcast
8:53 PM 37.9 °F 31.5 °F 28.9 °F 70% 29.72 in 10.0 mi NW 9.2 mph 21.9 mph N/A   Scattered Clouds
9:53 PM 37.9 °F 30.9 °F 30.0 °F 73% 29.73 in 10.0 mi WNW 10.4 mph - N/A   Overcast
10:04 PM 37.4 °F 30.8 °F 30.2 °F 75% 29.72 in 10.0 mi WNW 9.2 mph - N/A   Overcast
10:19 PM 37.4 °F 28.2 °F 28.4 °F 70% 29.73 in 10.0 mi NW 16.1 mph 23.0 mph N/A   Overcast
10:53 PM 37.9 °F 29.6 °F 28.0 °F 68% 29.75 in 10.0 mi NW 13.8 mph - N/A   Overcast
11:53 PM 37.9 °F 29.2 °F 26.1 °F 62% 29.76 in 10.0 mi NW 15.0 mph 24.2 mph N/A   Overcast